Time,TemperatureF,DewpointF,PressureIn,WindDirection,WindDirectionDegrees,WindSpeedMPH,WindSpeedGustMPH,Humidity,HourlyPrecipIn,Conditions,Clouds,dailyrainin,SoftwareType,DateUTC
2013-03-18 00:09:00,38.4,37.0,29.79,ENE,75,4.0,7.0,95,0.05,,,0.01,weatherlink.com 1.10,2013-03-18 05:09:00,
2013-03-18 00:24:00,38.4,37.0,29.79,East,85,6.0,9.0,95,0.05,,,0.02,weatherlink.com 1.10,2013-03-18 05:24:00,
2013-03-18 00:39:00,38.4,37.0,29.76,East,98,6.0,9.0,96,0.06,,,0.04,weatherlink.com 1.10,2013-03-18 05:39:00,
2013-03-18 00:54:00,38.7,38.0,29.73,ESE,103,7.0,10.0,96,0.05,,,0.05,weatherlink.com 1.10,2013-03-18 05:54:00,
2013-03-18 01:09:00,39.1,38.0,29.72,East,92,6.0,9.0,96,0.06,,,0.07,weatherlink.com 1.10,2013-03-18 06:09:00,
2013-03-18 01:24:00,39.9,39.0,29.73,ESE,119,4.0,8.0,96,0.06,,,0.08,weatherlink.com 1.10,2013-03-18 06:24:00,
2013-03-18 01:39:00,40.4,39.0,29.72,SE,126,3.0,5.0,96,0.06,,,0.10,weatherlink.com 1.10,2013-03-18 06:39:00,
2013-03-18 01:54:00,40.8,40.0,29.71,SE,124,3.0,5.0,96,0.06,,,0.11,weatherlink.com 1.10,2013-03-18 06:54:00,
2013-03-18 02:09:00,41.0,40.0,29.70,SE,124,4.0,4.0,96,0.06,,,0.13,weatherlink.com 1.10,2013-03-18 07:09:00,
2013-03-18 02:24:00,41.3,40.0,29.70,SE,124,1.0,3.0,96,0.07,,,0.15,weatherlink.com 1.10,2013-03-18 07:24:00,
2013-03-18 02:39:00,41.5,41.0,29.69,SE,124,2.0,4.0,96,0.07,,,0.17,weatherlink.com 1.10,2013-03-18 07:39:00,
2013-03-18 02:55:00,41.8,41.0,29.69,SE,124,0.0,3.0,96,0.08,,,0.19,weatherlink.com 1.10,2013-03-18 07:55:00,
2013-03-18 03:09:00,42.0,41.0,29.68,SE,124,0.0,3.0,96,0.08,,,0.21,weatherlink.com 1.10,2013-03-18 08:09:00,
2013-03-18 03:24:00,42.2,41.0,29.66,SE,124,2.0,2.0,96,0.08,,,0.23,weatherlink.com 1.10,2013-03-18 08:24:00,
2013-03-18 03:40:00,42.2,41.0,29.66,SE,124,2.0,3.0,96,0.08,,,0.25,weatherlink.com 1.10,2013-03-18 08:40:00,
2013-03-18 03:55:00,42.3,41.0,29.65,SE,124,0.0,5.0,96,0.07,,,0.26,weatherlink.com 1.10,2013-03-18 08:55:00,
2013-03-18 04:10:00,42.4,41.0,29.65,SE,124,0.0,3.0,96,0.06,,,0.28,weatherlink.com 1.10,2013-03-18 09:10:00,
2013-03-18 04:25:00,42.4,41.0,29.65,SE,124,3.0,4.0,96,0.07,,,0.30,weatherlink.com 1.10,2013-03-18 09:25:00,
2013-03-18 04:40:00,42.3,41.0,29.65,SE,124,1.0,3.0,96,0.06,,,0.31,weatherlink.com 1.10,2013-03-18 09:40:00,
2013-03-18 04:55:00,42.2,41.0,29.65,SE,124,0.0,0.0,96,0.06,,,0.33,weatherlink.com 1.10,2013-03-18 09:55:00,
2013-03-18 05:10:00,42.4,41.0,29.65,SE,124,1.0,1.0,96,0.06,,,0.34,weatherlink.com 1.10,2013-03-18 10:10:00,
2013-03-18 05:25:00,42.4,41.0,29.67,SE,124,2.0,3.0,96,0.06,,,0.36,weatherlink.com 1.10,2013-03-18 10:25:00,
2013-03-18 05:40:00,42.2,41.0,29.67,SE,124,4.0,5.0,96,0.06,,,0.37,weatherlink.com 1.10,2013-03-18 10:40:00,
2013-03-18 05:55:00,42.1,41.0,29.67,WNW,295,3.0,6.0,96,0.05,,,0.38,weatherlink.com 1.10,2013-03-18 10:55:00,
2013-03-18 06:10:00,42.0,41.0,29.67,WNW,298,5.0,6.0,96,0.05,,,0.39,weatherlink.com 1.10,2013-03-18 11:10:00,
2013-03-18 06:25:00,41.5,41.0,29.68,NW,315,5.0,7.0,96,0.04,,,0.40,weatherlink.com 1.10,2013-03-18 11:25:00,
2013-03-18 06:40:00,41.2,40.0,29.69,NW,306,3.0,5.0,96,0.04,,,0.41,weatherlink.com 1.10,2013-03-18 11:40:00,
2013-03-18 06:55:00,41.1,40.0,29.69,NW,306,2.0,4.0,96,0.04,,,0.42,weatherlink.com 1.10,2013-03-18 11:55:00,
2013-03-18 07:10:00,41.0,40.0,29.70,WNW,285,1.0,6.0,96,0.04,,,0.43,weatherlink.com 1.10,2013-03-18 12:10:00,
2013-03-18 07:25:00,40.8,40.0,29.69,West,273,0.0,6.0,96,0.04,,,0.44,weatherlink.com 1.10,2013-03-18 12:25:00,
2013-03-18 07:40:00,40.8,40.0,29.70,West,273,4.0,6.0,96,0.04,,,0.45,weatherlink.com 1.10,2013-03-18 12:40:00,
2013-03-18 07:55:00,40.7,40.0,29.69,WNW,290,3.0,6.0,96,0.04,,,0.46,weatherlink.com 1.10,2013-03-18 12:55:00,
2013-03-18 08:10:00,40.7,40.0,29.69,West,271,1.0,6.0,96,0.04,,,0.47,weatherlink.com 1.10,2013-03-18 13:10:00,
2013-03-18 08:25:00,40.7,40.0,29.70,WSW,240,3.0,5.0,96,0.04,,,0.48,weatherlink.com 1.10,2013-03-18 13:25:00,
2013-03-18 08:40:00,40.9,40.0,29.71,West,263,3.0,5.0,96,0.03,,,0.48,weatherlink.com 1.10,2013-03-18 13:40:00,
2013-03-18 08:55:00,41.1,40.0,29.70,WSW,254,6.0,7.0,96,0.03,,,0.49,weatherlink.com 1.10,2013-03-18 13:55:00,
2013-03-18 09:10:00,41.3,40.0,29.71,West,265,1.0,8.0,96,0.03,,,0.50,weatherlink.com 1.10,2013-03-18 14:10:00,
2013-03-18 09:25:00,41.9,41.0,29.72,West,270,3.0,8.0,96,0.03,,,0.51,weatherlink.com 1.10,2013-03-18 14:25:00,
2013-03-18 09:40:00,41.9,41.0,29.73,WSW,244,1.0,9.0,96,0.04,,,0.52,weatherlink.com 1.10,2013-03-18 14:40:00,
2013-03-18 09:55:00,42.3,41.0,29.74,WSW,246,3.0,8.0,95,0.04,,,0.53,weatherlink.com 1.10,2013-03-18 14:55:00,
2013-03-18 10:10:00,42.6,41.0,29.73,WNW,296,5.0,8.0,95,0.04,,,0.54,weatherlink.com 1.10,2013-03-18 15:10:00,
2013-03-18 10:25:00,43.2,42.0,29.73,WNW,283,5.0,7.0,94,0.03,,,0.54,weatherlink.com 1.10,2013-03-18 15:25:00,
2013-03-18 10:40:00,43.8,42.0,29.74,West,263,3.0,6.0,94,0.03,,,0.55,weatherlink.com 1.10,2013-03-18 15:40:00,
2013-03-18 10:55:00,44.2,42.0,29.74,WNW,287,2.0,9.0,92,0.03,,,0.56,weatherlink.com 1.10,2013-03-18 15:55:00,
2013-03-18 11:10:00,45.2,43.0,29.75,West,267,2.0,9.0,91,0.02,,,0.56,weatherlink.com 1.10,2013-03-18 16:10:00,
2013-03-18 11:25:00,45.3,42.0,29.76,West,277,4.0,12.0,89,0.02,,,0.56,weatherlink.com 1.10,2013-03-18 16:25:00,
2013-03-18 11:40:00,45.3,42.0,29.77,West,271,5.0,12.0,89,0.02,,,0.57,weatherlink.com 1.10,2013-03-18 16:40:00,
2013-03-18 11:55:00,45.1,42.0,29.77,West,265,6.0,11.0,89,0.02,,,0.58,weatherlink.com 1.10,2013-03-18 16:55:00,
2013-03-18 12:10:00,45.4,42.0,29.77,WNW,295,7.0,12.0,88,0.02,,,0.58,weatherlink.com 1.10,2013-03-18 17:10:00,
2013-03-18 12:25:00,44.6,41.0,29.77,NW,311,11.0,13.0,88,0.02,,,0.58,weatherlink.com 1.10,2013-03-18 17:25:00,
2013-03-18 12:40:00,44.7,42.0,29.77,WSW,254,4.0,11.0,89,0.02,,,0.59,weatherlink.com 1.10,2013-03-18 17:40:00,
2013-03-18 12:55:00,45.0,41.0,29.77,West,266,10.0,15.0,87,0.01,,,0.59,weatherlink.com 1.10,2013-03-18 17:55:00,
2013-03-18 13:10:00,44.7,41.0,29.76,WNW,300,6.0,12.0,87,0.01,,,0.59,weatherlink.com 1.10,2013-03-18 18:10:00,
2013-03-18 13:25:00,44.9,42.0,29.77,WNW,303,5.0,11.0,88,0.02,,,0.60,weatherlink.com 1.10,2013-03-18 18:25:00,
2013-03-18 13:40:00,44.9,41.0,29.77,WSW,237,6.0,13.0,87,0.01,,,0.60,weatherlink.com 1.10,2013-03-18 18:40:00,
2013-03-18 13:55:00,44.8,42.0,29.77,WNW,286,7.0,14.0,88,0.01,,,0.60,weatherlink.com 1.10,2013-03-18 18:55:00,
2013-03-18 14:10:00,44.9,41.0,29.78,WNW,290,9.0,16.0,86,0.01,,,0.60,weatherlink.com 1.10,2013-03-18 19:10:00,
2013-03-18 14:25:00,44.8,41.0,29.78,NW,325,12.0,15.0,86,0.01,,,0.61,weatherlink.com 1.10,2013-03-18 19:25:00,
2013-03-18 14:40:00,44.8,41.0,29.78,WNW,303,8.0,14.0,86,0.01,,,0.61,weatherlink.com 1.10,2013-03-18 19:40:00,
2013-03-18 14:55:00,44.9,40.0,29.79,WNW,284,6.0,17.0,84,0.01,,,0.61,weatherlink.com 1.10,2013-03-18 19:55:00,
2013-03-18 15:10:00,45.2,41.0,29.79,NW,304,9.0,10.0,86,0.01,,,0.61,weatherlink.com 1.10,2013-03-18 20:10:00,
2013-03-18 15:25:00,45.1,41.0,29.79,NNW,329,9.0,14.0,85,0.01,,,0.62,weatherlink.com 1.10,2013-03-18 20:25:00,
2013-03-18 15:40:00,45.9,42.0,29.79,West,277,7.0,14.0,85,0.01,,,0.62,weatherlink.com 1.10,2013-03-18 20:40:00,
2013-03-18 15:55:00,45.8,41.0,29.80,WNW,300,9.0,15.0,83,0.01,,,0.62,weatherlink.com 1.10,2013-03-18 20:55:00,
2013-03-18 16:10:00,46.0,41.0,29.80,NW,304,10.0,13.0,83,0.01,,,0.62,weatherlink.com 1.10,2013-03-18 21:10:00,
2013-03-18 16:25:00,46.0,41.0,29.81,West,279,8.0,12.0,83,0.00,,,0.62,weatherlink.com 1.10,2013-03-18 21:25:00,
2013-03-18 16:40:00,46.1,41.0,29.82,West,281,7.0,13.0,83,0.00,,,0.62,weatherlink.com 1.10,2013-03-18 21:40:00,
2013-03-18 16:55:00,46.4,41.0,29.82,WNW,283,9.0,12.0,82,0.00,,,0.62,weatherlink.com 1.10,2013-03-18 21:55:00,
2013-03-18 17:10:00,46.3,41.0,29.83,WNW,288,7.0,11.0,83,0.01,,,0.63,weatherlink.com 1.10,2013-03-18 22:10:00,
2013-03-18 17:25:00,47.0,42.0,29.83,NW,319,11.0,12.0,82,0.01,,,0.63,weatherlink.com 1.10,2013-03-18 22:25:00,
2013-03-18 17:40:00,46.9,41.0,29.84,NW,315,11.0,14.0,81,0.01,,,0.63,weatherlink.com 1.10,2013-03-18 22:40:00,
2013-03-18 17:55:00,47.2,41.0,29.84,WNW,295,7.0,10.0,80,0.01,,,0.63,weatherlink.com 1.10,2013-03-18 22:55:00,
2013-03-18 18:10:00,47.1,41.0,29.85,NW,304,6.0,11.0,80,0.00,,,0.63,weatherlink.com 1.10,2013-03-18 23:10:00,
2013-03-18 18:25:00,47.0,41.0,29.86,West,276,5.0,12.0,79,0.00,,,0.63,weatherlink.com 1.10,2013-03-18 23:25:00,
2013-03-18 18:40:00,46.3,41.0,29.86,WNW,290,4.0,9.0,81,0.00,,,0.63,weatherlink.com 1.10,2013-03-18 23:40:00,
2013-03-18 18:56:00,45.6,40.0,29.87,WNW,298,5.0,8.0,80,0.01,,,0.64,weatherlink.com 1.10,2013-03-18 23:56:00,
2013-03-18 19:11:00,44.7,40.0,29.88,WNW,302,1.0,5.0,82,0.01,,,0.64,weatherlink.com 1.10,2013-03-19 00:11:00,
2013-03-18 19:26:00,44.4,39.0,29.88,WNW,302,0.0,3.0,81,0.01,,,0.64,weatherlink.com 1.10,2013-03-19 00:26:00,
2013-03-18 19:41:00,44.2,39.0,29.89,West,281,2.0,5.0,81,0.01,,,0.64,weatherlink.com 1.10,2013-03-19 00:41:00,
2013-03-18 19:56:00,43.6,38.0,29.89,West,281,0.0,2.0,81,0.00,,,0.64,weatherlink.com 1.10,2013-03-19 00:56:00,
2013-03-18 20:11:00,42.8,38.0,29.89,West,281,0.0,0.0,83,0.00,,,0.64,weatherlink.com 1.10,2013-03-19 01:11:00,
2013-03-18 20:26:00,41.4,37.0,29.89,West,281,1.0,1.0,85,0.00,,,0.64,weatherlink.com 1.10,2013-03-19 01:26:00,
2013-03-18 20:41:00,39.5,36.0,29.90,West,281,0.0,1.0,88,0.00,,,0.64,weatherlink.com 1.10,2013-03-19 01:41:00,
2013-03-18 21:11:00,39.2,36.0,29.91,West,281,1.0,3.0,89,0.00,,,0.64,weatherlink.com 1.10,2013-03-19 02:11:00,
2013-03-18 21:41:00,40.5,36.0,29.92,West,281,0.0,2.0,85,0.01,,,0.65,weatherlink.com 1.10,2013-03-19 02:41:00,
2013-03-18 22:26:00,39.7,36.0,29.94,West,279,0.0,1.0,87,0.01,,,0.65,weatherlink.com 1.10,2013-03-19 03:26:00,
2013-03-18 22:41:00,38.7,36.0,29.95,NNW,333,0.0,5.0,89,0.00,,,0.65,weatherlink.com 1.10,2013-03-19 03:41:00,
2013-03-18 22:56:00,38.0,35.0,29.96,NNW,333,1.0,4.0,88,0.00,,,0.65,weatherlink.com 1.10,2013-03-19 03:56:00,
2013-03-18 23:11:00,37.9,35.0,29.96,NNW,333,1.0,5.0,89,0.00,,,0.65,weatherlink.com 1.10,2013-03-19 04:11:00,
2013-03-18 23:26:00,37.1,35.0,29.96,NNW,333,3.0,3.0,90,0.01,,,0.66,weatherlink.com 1.10,2013-03-19 04:26:00,
2013-03-18 23:41:00,38.2,35.0,29.98,NNW,332,0.0,4.0,89,0.01,,,0.66,weatherlink.com 1.10,2013-03-19 04:41:00,
2013-03-18 23:56:00,39.5,35.0,29.98,WNW,302,4.0,9.0,84,0.01,,,0.66,weatherlink.com 1.10,2013-03-19 04:56:00,